Flight Track Log - Related Links

Times and Time Zones

All times are in EDT time to prevent confusion due to time zone crossing. See the N163CA flight status page for this flight to view local times or setup timezone preferences in your user account.

Time Position Orientation Groundspeed Altitude Reporting Facility
EDT Latitude Longitude Course Direction KTS MPH feet Rate Location/Type
Fri 02:58:58 PM 29.2919 -81.2831 186° South 104 120 2,800  Level Jacksonville Center
Fri 02:59:59 PM 29.2650 -81.2931 198° South 107 123 3,400 541 Climbing Jacksonville Center
Fri 03:01:00 PM 29.2317 -81.3031 195° South 106 122 3,900 246 Climbing Jacksonville Center
Fri 03:02:00 PM 29.2465 -81.1209 186° South  Level FlightAware Approximate
Fri 03:02:01 PM 29.2025 -81.3131 197° South 116 133 3,900  Level Jacksonville Center
Fri 03:03:00 PM 29.2374 -81.1220 186° South  Level FlightAware Approximate
Fri 03:03:02 PM 29.1733 -81.3253 200° South 115 132 3,900  Level Jacksonville Center
Fri 03:04:00 PM 29.2283 -81.1232 186° South  Level FlightAware Approximate
Fri 03:04:03 PM 29.1422 -81.3353 196° South 114 131 3,900  Level Jacksonville Center
Fri 03:05:04 PM 29.1089 -81.3336 177° South 117 135 3,900  Level Jacksonville Center
Fri 03:06:41 PM 29.0667 -81.3167 161° South 125 144 3,900  Level Orlando TRACON
Fri 03:07:41 PM 29.0333 -81.3000 156° South 123 142 3,900  Level Orlando TRACON
Fri 03:08:35 PM 29.0000 -81.3000 180° South 117 135 3,900 53 Level Orlando TRACON
Fri 03:09:35 PM 28.9667 -81.2833 156° South 132 152 4,000  Climbing Orlando TRACON
Fri 03:10:35 PM 28.9333 -81.2833 180° South 118 136 3,900 -99 Descending Orlando TRACON
Fri 03:11:36 PM 28.9167 -81.3167 240° Southwest 119 137 3,800  Descending Orlando TRACON
Fri 03:12:36 PM 28.8833 -81.3333 204° Southwest 115 132 3,900 -150 Climbing Orlando TRACON
Fri 03:13:36 PM 28.8667 -81.3667 240° Southwest 118 136 3,500 -526 Descending Orlando TRACON
Fri 03:14:30 PM 28.8500 -81.4000 240° Southwest 113 130 2,900 -632 Descending Orlando TRACON
Fri 03:15:30 PM 28.8333 -81.4333 240° Southwest 119 137 2,300 -600 Descending Orlando TRACON
Fri 03:16:30 PM 28.8000 -81.4167 156° South 117 135 1,700 -347 Descending Orlando TRACON
Fri 03:17:31 PM 28.7833 -81.4000 139° Southeast 126 145 1,600 -47 Descending Orlando TRACON
Fri 03:18:37 PM 28.7833 -81.3500 90° East 138 159 1,600 -333 Level Orlando TRACON
Fri 03:19:37 PM 28.7833 -81.3167 90° East 100 115 900 -216 Descending Orlando TRACON
Fri 03:21:00 PM 28.7733 -81.2665 103° East  Level FlightAware Approximate
Fri 03:22:19 PM 28.8000 -81.2333 103° East 98 113 800  Level Orlando TRACON
Fri 03:22:55 PM 28.8000 -81.2167 90° East 97 112 1,200 757 Climbing Orlando TRACON
Fri 03:24:02 PM 28.8333 -81.2167 360° North 106 122 2,100 677 Climbing Orlando TRACON
Fri 03:25:08 PM 28.8667 -81.2333 336° Northwest 101 116 2,700 381 Climbing Orlando TRACON
Fri 03:26:08 PM 28.8667 -81.2667 270° West 116 133 2,900 99 Climbing Orlando TRACON
Fri 03:27:09 PM 28.8500 -81.3000 240° Southwest 109 125 2,900  Level Orlando TRACON
Fri 03:28:08 PM 28.8500 -81.3333 270° West 110 127 2,900  Level Orlando TRACON
Fri 03:29:08 PM 28.8333 -81.3667 240° Southwest 116 133 2,900  Level Orlando TRACON
Fri 03:30:03 PM 28.8333 -81.4000 270° West 110 127 2,900 -165 Level Orlando TRACON
Fri 03:30:57 PM 28.8333 -81.4333 270° West 110 127 2,600 -474 Descending Orlando TRACON
Fri 03:31:57 PM 28.8167 -81.4667 240° Southwest 111 128 2,000 -368 Descending Orlando TRACON
Fri 03:32:51 PM 28.8000 -81.4667 180° South 93 107 1,900  Descending Orlando TRACON
Fri 03:33:57 PM 28.7833 -81.4500 139° Southeast 101 116 2,000  Climbing Orlando TRACON
Fri 03:35:03 PM 28.7667 -81.4167 120° Southeast 96 110 1,900  Descending Orlando TRACON
Fri 03:35:58 PM 28.7667 -81.3833 90° East 102 117 2,000  Climbing Orlando TRACON
Fri 03:37:04 PM 28.7667 -81.3500 90° East 99 114 1,900 -87 Descending Orlando TRACON
Fri 03:38:16 PM 28.7667 -81.3167 90° East 93 107 1,800 -250 Descending Orlando TRACON
Fri 03:39:04 PM 28.7667 -81.3000 90° East 95 109 1,400 -495 Descending Orlando TRACON
Fri 03:40:05 PM 28.7667 -81.2667 90° East 98 113 900 -492 Descending Orlando TRACON

Login

Don't have an account? Register now (free) for customized features, flight alerts, and more!